User: anonymous
Location: Arrakis Observatory
(44.1122°N, 95.7153°W)
Time: 11:06:47
(UTC-05:00)
Language:

Iridium 35 - Orbit

View from above orbital plane
View from above orbital plane
View from above satellite
View from above satellite

Ground track
Ground track

The orbit data is extracted from the following two-line orbital elements,

1 24966U 97056B   14204.49092389 -.00000031  00000-0 -18058-4 0  9182
2 24966 086.3937 041.6507 0002116 111.8028 248.3393 14.34216478880647
Epoch (UTC): 23 July 2014 11:46:55
Eccentricity: 0.0002116
inclination: 86.3937°
perigee height: 776 km
apogee height: 779 km
right ascension of ascending node: 41.6507°
argument of perigee: 111.8028°
revolutions per day: 14.34216478
mean anomaly at epoch: 248.3393°
orbit number at epoch: 88064

The dashed part of the orbit path shows where the satellite is in the earth's shadow,  

DLR